Theta_e
300 295 293 297 302 303 300 298 297 300 307 304 303 314 324 328 331 330 329 328 328 328 331 334 334 337 338 340 341 341 341 342 343 340 339 341 341 344 346 348 351 352 351 349
297 292 300 304 305 303 300 297 296 301 304 300 303 310 322 325 330 331 330 328 329 328 328 330 334 334 337 339 340 338 340 342 344 342 341 343 342 345 347 349 352 352 351 347
295 301 306 306 304 301 297 295 296 297 302 308 314 310 319 328 329 331 332 331 331 329 327 329 334 334 337 338 339 338 339 342 344 342 343 342 342 343 345 348 349 352 351 349
300 305 305 302 302 302 292 302 302 300 295 289 308 295 310 321 322 326 328 329 329 329 331 330 333 336 337 338 339 340 339 342 344 342 342 341 340 338 342 345 349 352 354 351
298 301 302 300 301 303 300 303 301 299 293 289 293 298 297 316 316 321 327 329 330 331 331 331 332 337 339 339 339 339 339 342 344 343 343 341 340 340 342 345 348 350 352 352
297 298 301 303 305 304 304 298 293 290 289 285 290 296 291 309 315 318 326 330 331 332 331 333 333 337 338 340 339 339 338 340 343 343 342 342 340 340 340 341 344 346 350 352
290 293 296 299 294 297 296 291 284 283 283 284 287 289 291 302 306 312 321 328 333 333 333 332 330 332 336 337 338 339 339 338 341 342 341 342 342 342 341 341 342 344 347 350
284 284 291 296 292 291 292 291 285 281 281 285 289 287 294 306 308 309 322 327 332 333 334 334 332 332 334 336 337 339 338 338 341 341 340 340 342 342 343 343 343 344 347 350
283 285 294 296 295 294 291 288 291 285 283 284 287 293 300 305 304 305 308 323 328 330 332 333 334 333 334 334 335 338 339 339 340 341 341 339 340 341 341 344 345 345 348 350
286 284 289 294 295 293 291 292 287 285 282 281 285 290 292 297 299 302 306 315 324 328 328 331 334 332 334 335 336 339 340 340 341 342 342 341 339 340 341 343 344 346 348 351
286 285 286 289 287 285 288 286 284 286 284 283 282 288 296 297 299 298 318 325 319 329 331 333 334 333 335 336 335 338 340 340 340 342 342 342 341 340 340 341 344 346 349 349
288 285 283 283 290 292 290 286 283 284 283 282 285 287 295 294 296 301 313 326 326 327 330 334 335 335 334 335 336 336 339 340 341 341 342 341 342 344 341 340 341 344 346 349
289 282 278 281 284 288 287 288 283 282 280 280 282 284 295 295 297 303 310 310 311 319 324 325 329 332 334 335 336 337 338 340 341 342 341 341 340 341 343 343 341 342 343 344
293 282 281 279 281 285 285 288 288 283 281 281 282 286 290 292 294 300 303 306 308 309 310 314 318 323 332 334 335 337 338 339 341 341 341 340 340 340 341 343 344 341 342 343
287 282 282 284 288 288 287 288 289 285 285 283 285 287 290 293 295 298 300 302 303 303 306 308 310 313 314 324 336 337 335 339 340 341 341 341 341 341 341 341 343 344 342 342
286 283 284 282 288 288 286 289 290 289 289 288 288 288 294 296 299 298 298 300 300 301 302 305 307 310 311 317 321 334 335 334 340 339 340 343 344 343 341 341 341 342 344 343
284 282 279 276 285 284 281 286 288 289 290 289 285 290 295 294 295 296 297 298 299 300 302 302 304 307 309 313 320 328 335 338 336 339 341 342 344 344 344 343 341 340 341 343
283 281 280 277 278 272 282 291 291 291 292 292 293 292 293 293 295 296 299 297 297 298 300 301 303 305 307 311 320 331 337 337 337 339 342 342 342 343 344 345 342 340 340 340
284 282 278 275 272 281 286 288 287 286 287 291 290 291 292 293 294 296 299 298 297 298 300 301 303 305 307 311 321 330 334 336 338 338 340 345 344 343 343 344 344 343 341 340
286 284 281 276 276 275 284 290 293 292 284 290 291 291 291 291 285 292 296 297 298 299 300 301 303 304 305 308 318 325 327 334 334 338 339 340 342 346 344 343 345 346 346 343
277 278 277 280 279 283 289 291 294 281 282 291 292 292 291 289 292 294 296 297 298 299 301 303 303 302 304 307 312 319 323 327 337 341 340 338 338 339 348 348 347 347 347 347
276 273 272 281 278 273 292 290 284 287 290 292 292 292 292 293 294 295 296 296 297 299 302 303 302 302 304 306 309 315 320 328 336 335 336 337 338 337 341 344 349 348 346 345
279 280 276 278 278 287 291 289 292 293 292 293 294 294 294 294 294 295 295 296 298 301 303 302 301 302 304 306 308 311 319 331 331 331 331 331 335 340 340 339 340 347 348 346
288 286 279 281 284 287 289 292 294 294 293 295 296 296 296 294 295 295 296 296 299 301 302 303 302 302 303 306 308 311 317 327 327 326 327 330 330 331 336 343 340 340 346 346
284 288 288 287 287 288 290 292 294 294 295 296 298 297 295 295 296 296 297 297 299 300 302 303 302 302 304 307 308 310 314 323 322 321 323 327 329 330 332 339 344 345 343 343
288 286 283 281 287 287 288 293 295 294 295 297 297 295 297 297 296 296 296 297 298 299 301 302 302 302 303 305 307 310 314 320 318 317 319 322 326 327 330 331 336 320 317 310
Wind_Speed
3 5 7 6 7 4 2 3 2 3 3 2 5 7 10 10 9 12 13 13 16 17 15 14 13 14 13 10 10 9 9 8 7 3 3 2 3 2 2 3 5 4 3 4
5 6 7 7 5 4 4 2 2 4 3 5 1 5 5 11 11 12 15 16 13 12 13 13 14 15 15 15 14 10 10 9 7 4 3 3 3 2 1 2 2 4 3 4
7 6 8 6 5 5 2 4 2 3 5 2 2 2 3 3 1 6 9 12 10 15 15 17 15 16 15 15 15 14 14 12 9 6 4 3 4 3 3 1 2 3 4 4
5 3 8 6 4 6 1 6 4 2 3 3 1 4 3 5 6 5 9 10 12 13 14 15 16 15 15 16 14 14 13 12 10 8 6 6 4 4 3 3 2 3 5 4
6 6 5 4 5 6 6 7 6 4 3 2 3 4 5 3 7 15 12 14 15 13 15 14 15 16 15 13 14 14 13 11 10 11 9 7 5 3 3 2 5 4 3 4
5 1 6 9 6 8 5 5 8 6 4 2 6 6 6 3 6 4 15 14 16 15 15 13 14 15 14 13 13 12 13 12 10 11 9 10 10 7 4 4 4 3 2 2
1 2 2 3 3 2 5 7 2 3 2 6 1 4 5 8 8 12 11 16 14 16 17 15 17 16 15 14 14 13 14 14 13 12 10 10 10 10 9 6 5 4 3 3
5 1 3 4 2 7 7 9 7 6 6 5 1 5 4 4 9 9 4 11 13 15 14 16 14 16 16 17 17 16 15 14 13 13 12 9 8 6 5 6 4 5 5 4
4 0 4 5 4 2 4 3 3 8 2 3 3 5 4 18 16 19 15 5 13 16 17 14 14 15 15 16 17 18 16 15 14 15 12 10 9 8 8 7 5 4 5 4
1 5 4 5 4 7 6 1 3 4 5 3 3 3 4 14 17 20 20 12 8 10 13 13 10 14 13 13 15 16 16 18 16 15 13 11 11 10 9 7 7 6 5 5
2 3 4 6 8 5 7 6 6 5 3 7 4 3 5 7 10 16 16 15 5 7 6 5 6 7 10 11 12 13 14 15 13 12 11 10 9 9 7 9 9 8 5 6
5 4 5 2 5 5 6 3 4 5 3 2 4 2 5 8 9 12 17 17 18 14 10 6 6 6 3 4 6 11 13 13 13 13 12 12 11 10 10 10 10 9 9 6
2 4 5 4 6 5 7 5 3 4 3 2 5 4 6 10 14 15 18 19 16 17 17 13 11 8 4 5 4 5 5 9 10 9 11 10 9 11 12 11 9 10 9 9
7 4 3 7 4 3 4 4 3 5 4 1 2 2 6 11 11 13 15 16 17 17 16 14 15 11 6 5 3 4 8 9 10 10 11 12 12 12 13 12 11 11 11 10
6 5 3 5 4 3 2 1 3 1 5 4 6 1 3 6 6 9 10 12 16 17 16 15 13 11 12 11 6 4 5 10 12 14 15 16 14 12 11 10 10 11 10 11
4 3 4 2 4 0 4 5 6 5 1 2 4 3 4 4 5 8 10 12 13 13 16 14 14 14 13 10 12 9 5 6 10 14 16 14 13 13 13 12 11 10 12 12
3 4 3 3 1 2 4 4 2 2 5 2 4 2 7 6 9 9 6 7 10 12 12 13 13 11 13 13 12 12 10 6 5 8 12 13 14 13 13 12 11 12 13 11
3 3 2 2 1 3 4 3 5 1 4 6 6 9 9 8 11 12 3 5 9 12 14 14 11 13 13 13 11 11 10 9 4 3 8 10 11 12 12 12 13 13 12 12
2 4 3 4 1 2 4 4 4 3 2 7 3 7 12 16 12 2 7 6 10 12 12 12 13 13 15 15 10 10 10 9 7 4 4 8 11 13 12 14 14 13 11 11
5 6 5 2 3 3 2 3 2 3 5 8 5 7 11 13 7 4 10 19 19 14 13 16 17 15 14 13 13 11 11 9 9 7 6 7 6 11 13 15 13 11 10 12
4 4 4 2 1 2 4 5 1 3 3 5 3 8 11 9 10 18 20 21 17 17 19 15 16 15 15 13 13 12 12 10 8 7 5 6 5 7 10 11 10 10 11 10
3 4 2 3 2 6 3 2 2 2 2 2 5 10 12 13 14 16 22 20 19 19 16 16 14 15 15 13 10 13 11 12 8 7 4 5 6 6 6 6 11 11 11 11
2 6 5 8 7 4 4 4 5 3 4 5 7 10 11 14 14 15 17 20 17 19 16 12 13 15 15 15 11 13 13 10 8 8 5 5 7 7 7 8 7 9 12 12
4 5 4 3 3 6 7 5 6 6 6 6 7 8 9 14 13 16 16 17 14 16 13 12 13 16 19 15 16 14 14 8 7 7 9 4 4 7 8 7 7 9 11 11
5 5 4 4 8 5 8 7 7 7 5 7 10 5 5 12 14 15 13 14 15 14 13 13 16 17 19 19 19 17 14 9 8 7 8 7 5 6 8 8 8 10 13 13
7 8 8 8 9 5 4 5 5 6 6 9 8 5 8 9 12 14 14 13 15 15 13 12 15 16 16 18 19 19 15 8 7 8 8 6 5 5 6 7 8 12 14 11
Wind_Direction
189 110 196 168 181 204 171 133 142 269 241 223 239 262 197 195 190 180 189 188 179 185 184 184 178 177 172 164 164 172 170 171 160 151 157 154 190 174 206 193 188 203 201 174
66 214 200 187 203 201 208 141 281 278 197 174 170 284 224 182 200 192 177 192 184 166 171 182 180 176 174 173 182 173 182 174 184 169 156 149 150 157 145 168 180 193 183 177
150 213 175 169 184 177 199 153 190 225 326 56 168 4 131 177 155 188 191 193 194 181 172 186 185 177 176 182 184 178 185 180 187 165 125 89 97 78 87 161 181 201 186 170
188 176 150 160 191 139 219 199 173 249 50 260 25 281 283 165 208 227 195 182 188 190 181 181 186 180 180 186 185 183 181 180 184 168 168 166 153 149 184 183 168 179 193 181
227 161 157 144 196 163 207 173 175 177 189 16 335 80 259 140 231 228 213 199 199 196 191 179 185 181 187 184 183 187 179 178 181 185 180 169 159 150 145 149 166 170 204 190
184 143 142 186 207 184 135 106 38 43 88 22 226 131 291 223 263 297 211 211 198 197 195 185 182 181 187 184 184 179 175 184 182 185 187 179 172 164 146 162 175 180 186 209
45 165 253 138 149 88 94 82 346 32 55 207 125 101 222 289 297 270 203 213 205 193 190 186 179 182 184 183 182 185 183 186 188 189 191 192 182 173 178 175 174 170 179 195
142 130 359 5 159 184 181 153 157 171 175 202 30 208 206 336 301 358 280 204 199 197 196 199 184 186 184 184 185 187 186 191 185 191 198 197 182 181 181 178 173 185 196 205
128 84 320 39 23 91 189 143 189 105 20 81 251 322 326 351 356 356 1 217 200 201 198 187 184 186 186 187 187 187 189 195 192 194 195 194 185 181 190 183 178 179 191 196
19 100 8 317 28 34 93 57 89 12 132 180 0 40 312 343 339 339 348 332 250 203 197 197 191 185 189 189 189 190 193 194 196 194 192 197 195 195 189 172 183 191 195 195
50 71 331 35 14 291 13 12 24 111 113 154 136 279 339 319 325 333 349 346 279 185 189 183 185 186 183 184 187 194 196 198 196 202 195 194 195 193 192 192 188 190 179 192
356 103 63 66 279 40 71 88 117 122 213 51 116 263 13 344 341 359 5 34 44 47 43 73 108 99 123 165 172 188 196 200 200 197 197 197 193 191 198 197 196 186 198 181
18 24 88 356 334 5 52 350 85 104 77 29 116 224 2 3 9 14 31 31 37 44 42 37 47 63 108 138 137 155 188 202 205 197 201 202 196 187 201 209 200 191 193 197
80 74 141 170 147 164 66 357 19 97 80 177 102 320 346 360 11 3 22 29 36 42 33 29 21 17 28 26 346 231 208 190 193 194 203 207 203 202 205 202 196 202 197 199
78 102 57 46 70 79 108 72 344 80 158 138 206 163 69 25 18 8 3 25 30 27 22 24 16 5 4 352 349 302 250 225 209 201 201 207 207 206 205 207 200 200 203 208
1 152 145 156 19 63 178 254 232 265 232 168 169 202 357 62 13 30 16 14 21 16 10 6 4 354 353 343 323 325 312 272 231 212 213 214 210 204 202 203 204 195 202 211
58 117 85 186 277 146 38 317 337 284 54 25 181 332 360 355 4 347 352 14 11 1 352 350 348 339 335 330 312 309 315 293 251 235 218 210 211 211 210 208 203 207 203 198
116 84 76 193 26 157 183 346 8 251 85 46 55 358 355 340 316 287 183 22 4 352 338 331 330 328 326 318 304 303 313 330 318 288 226 216 209 219 213 207 209 214 210 204
35 116 73 111 116 303 86 355 10 23 295 70 71 3 342 339 326 258 116 23 346 332 322 311 312 311 314 309 308 307 319 346 334 346 288 238 213 220 217 215 214 215 212 211
53 69 107 64 103 193 149 257 270 142 263 43 45 2 340 341 336 265 347 336 326 320 313 311 308 307 306 307 310 324 325 327 337 328 298 279 252 228 220 222 219 214 214 216
7 8 117 165 209 291 157 259 299 122 279 317 345 333 314 293 274 298 307 306 305 302 309 306 302 298 300 305 309 305 304 340 285 303 298 290 285 267 242 221 215 212 211 219
163 120 143 111 154 282 212 11 194 221 240 287 331 333 315 293 288 287 295 295 296 305 307 301 297 295 298 300 299 293 288 273 265 274 285 302 283 274 266 246 215 209 202 206
252 173 181 174 212 219 194 187 233 246 235 282 304 323 311 299 286 285 291 290 292 296 295 285 284 288 289 290 278 274 272 259 269 282 271 253 283 291 263 249 237 222 210 215
183 159 168 42 220 207 205 207 212 206 225 247 296 280 322 307 287 283 285 283 288 300 291 294 290 294 293 293 287 276 279 243 246 260 280 275 286 281 279 271 238 231 230 219
198 153 198 254 283 280 246 207 205 233 246 257 264 263 309 317 304 290 289 291 286 290 292 294 298 295 295 292 284 281 277 252 240 242 255 259 245 251 272 269 269 240 232 229
180 182 176 212 213 163 210 194 193 229 246 256 267 260 278 301 294 295 289 286 287 284 284 286 290 293 297 297 285 279 277 246 230 240 252 250 257 261 257 269 275 237 236 264